CW3590 Weather Reports


time (UTC)temp
C
wind
direction
speed
KPH
gust
KPH
rain 1hr
cm
rain 24hr
cm
rain mn
cm
humidity
%
barometer
mb
20260509185011 27 136 1.6 6.4 0.00 0.00 0.00 70 1008.5
20260509184012 27 212 3.2 9.7 0.00 0.00 0.00 71 1008.5
20260509183011 27 159 1.6 8.0 0.00 0.00 0.00 73 1008.6
20260509182012 27 128 3.2 6.4 0.00 0.00 0.00 72 1008.7
20260509181011 27 144 3.2 8.0 0.00 0.00 0.00 74 1008.9
20260509180011 27 187 3.2 6.4 0.00 0.00 0.00 75 1009.0
20260509175010 26 137 3.2 11.3 0.00 0.00 0.00 79 1009.1
20260509174010 26 168 1.6 6.4 0.00 0.00 0.00 80 1009.4
20260509173010 26 147 3.2 4.8 0.00 0.00 0.00 82 1009.4
20260509172010 25 137 3.2 11.3 0.00 0.00 0.00 80 1009.4
20260509171010 26 134 1.6 6.4 0.00 0.00 0.00 80 1009.3
20260509170011 25 149 1.6 6.4 0.00 0.00 0.00 81 1009.4
20260509165011 25 207 1.6 8.0 0.00 0.00 0.00 80 1009.4
20260509163010 25 112 1.6 4.8 0.00 0.00 0.00 82 1009.5
20260509162011 25 254 1.6 6.4 0.00 0.00 0.00 84 1009.3
20260509161011 24 176 1.6 4.8 0.00 0.00 0.00 86 1009.3
20260509160010 24 238 3.2 8.0 0.00 0.00 0.00 87 1009.3
20260509155011 24 224 1.6 6.4 0.00 0.00 0.00 90 1009.4
20260509154010 23 155 1.6 4.8 0.00 0.00 0.00 92 1009.3
20260509153011 23 155 1.6 6.4 0.00 0.00 0.00 94 1009.4
20260509152011 22 0 0.0 3.2 0.00 0.00 0.00 95 1009.3
20260509151011 22 0 0.0 1.6 0.00 0.00 0.00 95 1009.3
20260509150010 22 0 0.0 3.2 0.00 0.00 0.00 95 1009.4
20260509145011 22 0 0.0 0.0 0.00 0.00 0.00 95 1009.6
20260509144010 22 0 0.0 0.0 0.00 0.00 0.00 95 1009.7
20260509142010 22 0 0.0 4.8 0.00 0.00 0.00 95 1009.8
20260509141010 22 0 0.0 3.2 0.00 0.00 0.00 95 1009.7
20260509140010 22 0 0.0 3.2 0.00 0.00 0.00 95 1009.7
20260509135011 22 0 0.0 3.2 0.00 0.00 0.00 95 1009.5
20260509133010 21 255 0.0 8.0 0.00 0.00 0.00 95 1009.4
20260509132010 21 278 1.6 4.8 0.00 0.00 0.00 95 1009.5
20260509131013 21 262 0.0 6.4 0.00 0.00 0.00 95 1009.6
20260509130010 21 0 0.0 1.6 0.00 0.00 0.00 95 1009.5
20260509124010 21 188 0.0 6.4 0.00 0.00 0.00 95 1009.4
20260509123010 21 0 0.0 3.2 0.00 0.00 0.00 95 1009.3
20260509120010 21 170 0.0 3.2 0.00 0.00 0.00 95 1008.9
20260509115010 21 0 0.0 3.2 0.00 0.00 0.00 95 1008.6
20260509114010 21 162 0.0 3.2 0.00 0.00 0.00 94 1008.9
20260509113010 21 161 0.0 4.8 0.00 0.00 0.00 94 1008.5
20260509112010 21 160 1.6 3.2 0.00 0.00 0.00 94 1008.3
20260509111010 21 157 1.6 4.8 0.00 0.00 0.00 94 1008.1
20260509110010 21 135 1.6 6.4 0.00 0.00 0.00 94 1007.6
20260509104010 21 160 1.6 4.8 0.00 0.00 0.00 94 1007.8
20260509103010 21 154 1.6 4.8 0.00 0.00 0.00 94 1008.1
20260509102010 21 141 0.0 6.4 0.00 0.00 0.00 94 1007.9
20260509101011 21 0 0.0 4.8 0.00 0.00 0.00 93 1008.0
20260509100009 21 0 0.0 3.2 0.00 0.00 0.00 93 1008.3
20260509095011 21 143 0.0 4.8 0.00 0.00 0.00 93 1008.5
20260509094010 21 131 1.6 3.2 0.00 0.00 0.00 93 1008.4
20260509092009 21 0 0.0 3.2 0.00 0.00 0.00 93 1008.5
20260509091011 21 108 0.0 4.8 0.00 0.00 0.00 92 1008.3
20260509090010 21 123 1.6 4.8 0.00 0.00 0.00 92 1008.3
20260509085010 21 123 1.6 4.8 0.00 0.00 0.00 92 1008.3
20260509084010 21 118 0.0 3.2 0.00 0.00 0.00 92 1008.5
20260509083010 21 116 1.6 3.2 0.00 0.00 0.00 92 1008.8
20260509082011 21 113 1.6 3.2 0.00 0.00 0.00 91 1009.0
20260509081010 21 93 1.6 4.8 0.00 0.00 0.00 91 1009.1
20260509080009 21 0 0.0 3.2 0.00 0.00 0.00 90 1009.1
20260509075009 21 0 0.0 1.6 0.00 0.00 0.00 89 1009.5
20260509074010 21 0 0.0 0.0 0.00 0.00 0.00 89 1009.7
20260509073009 21 0 0.0 0.0 0.00 0.00 0.00 89 1009.5
20260509072011 21 0 0.0 0.0 0.00 0.00 0.00 89 1009.5
20260509071010 21 0 0.0 0.0 0.00 0.00 0.00 89 1009.5
20260509070010 21 93 0.0 3.2 0.00 0.00 0.00 89 1009.4
20260509065011 21 93 1.6 4.8 0.00 0.00 0.00 88 1009.4
20260509064010 21 85 1.6 4.8 0.00 0.00 0.00 89 1008.9
20260509063010 21 57 1.6 8.0 0.00 0.00 0.00 88 1009.5
20260509062011 21 101 1.6 4.8 0.00 0.00 0.00 88 1009.4
20260509061010 21 0 0.0 3.2 0.00 0.00 0.00 87 1009.8
20260509060010 21 0 0.0 0.0 0.00 0.00 0.00 87 1010.0
20260509055010 21 0 0.0 0.0 0.00 0.00 0.00 87 1010.2
20260509054010 21 0 0.0 0.0 0.00 0.00 0.00 87 1010.3
20260509053010 21 0 0.0 1.6 0.00 0.00 0.00 87 1010.4
20260509052010 21 0 0.0 1.6 0.00 0.00 0.00 87 1010.3
20260509051010 21 0 0.0 3.2 0.00 0.00 0.00 86 1010.1
20260509050011 22 0 0.0 1.6 0.00 0.00 0.00 86 1010.0
20260509045011 22 0 0.0 0.0 0.00 0.00 0.00 87 1009.8
20260509044009 22 0 0.0 1.6 0.00 0.00 0.00 87 1009.6
20260509043012 22 0 0.0 1.6 0.00 0.00 0.00 87 1009.6
20260509042009 22 0 0.0 1.6 0.00 0.00 0.00 86 1009.4
20260509041011 22 0 0.0 3.2 0.00 0.00 0.00 86 1009.4
20260509040010 22 134 0.0 4.8 0.00 0.00 0.00 86 1009.3
20260509035010 22 133 0.0 4.8 0.00 0.00 0.00 86 1009.0
20260509034009 22 0 0.0 1.6 0.00 0.00 0.00 86 1009.3
20260509030010 22 0 0.0 3.2 0.00 0.00 0.00 85 1008.8
20260509024009 22 0 0.0 0.0 0.00 0.00 0.00 85 1008.5
20260509023009 22 0 0.0 0.0 0.00 0.00 0.00 84 1008.5
20260509022009 22 0 0.0 0.0 0.00 0.00 0.00 84 1008.3
20260509021009 22 0 0.0 0.0 0.00 0.00 0.00 83 1008.2
20260509020010 22 0 0.0 3.2 0.00 0.00 0.00 83 1008.2
20260509015010 22 0 0.0 0.0 0.00 0.00 0.00 82 1008.0
20260509014010 22 0 0.0 0.0 0.00 0.00 0.00 82 1007.8
20260509013010 22 0 0.0 3.2 0.00 0.00 0.00 81 1007.7
20260509012010 22 129 0.0 3.2 0.00 0.00 0.00 80 1007.6
20260509011010 22 123 1.6 3.2 0.00 0.00 0.00 80 1007.5
20260509010010 23 111 1.6 3.2 0.00 0.00 0.00 79 1007.4
20260509005010 23 107 0.0 3.2 0.00 0.00 0.00 79 1007.4
20260509003010 23 155 1.6 3.2 0.00 0.00 0.00 78 1007.4
20260509002011 23 119 1.6 8.0 0.00 0.00 0.00 77 1007.3
20260509001009 23 147 1.6 4.8 0.00 0.00 0.00 76 1007.2
20260509000010 23 133 3.2 4.8 0.00 0.00 0.00 76 1007.2
20260508235009 24 153 4.8 12.9 0.00 0.00 0.00 75 1007.1
20260508234009 24 159 4.8 12.9 0.00 0.00 0.00 73 1007.1
20260508233009 24 157 3.2 11.3 0.00 0.00 0.00 72 1007.2
20260508232009 25 143 3.2 8.0 0.00 0.00 0.00 72 1007.4
20260508231009 25 109 1.6 4.8 0.00 0.00 0.00 73 1007.6
20260508230009 25 98 1.6 3.2 0.00 0.00 0.00 72 1007.9
20260508225010 24 0 0.0 4.8 0.00 0.00 0.00 73 1008.5
20260508224009 24 0 0.0 4.8 0.00 0.00 0.00 72 1008.6
20260508223010 25 96 0.0 1.6 0.00 0.00 0.00 70 1008.4
20260508222009 25 100 1.6 4.8 0.00 0.00 0.00 70 1008.4
20260508220009 25 93 0.0 4.8 0.00 0.00 0.00 68 1008.4
20260508215011 24 0 0.0 3.2 0.00 0.00 0.00 69 1008.9
20260508214009 25 57 1.6 3.2 0.00 0.00 0.00 67 1008.9
20260508213010 25 85 1.6 6.4 0.00 0.00 0.00 66 1008.7
20260508212010 25 160 1.6 4.8 0.00 0.00 0.00 64 1008.6
20260508211009 25 176 1.6 8.0 0.00 0.00 0.00 65 1008.6
20260508210009 25 178 1.6 4.8 0.00 0.00 0.00 66 1008.6
20260508205011 25 59 3.2 8.0 0.00 0.00 0.00 64 1008.8
20260508204010 26 58 1.6 16.1 0.00 0.00 0.00 66 1008.3
20260508202010 25 107 1.6 8.0 0.00 0.00 0.00 67 1008.9
20260508201010 25 90 1.6 4.8 0.00 0.00 0.00 65 1009.3
20260508200009 25 77 1.6 4.8 0.00 0.00 0.00 64 1009.4
20260508195009 25 79 1.6 8.0 0.00 0.00 0.00 62 1009.6
20260508192009 25 88 1.6 4.8 0.00 0.00 0.00 62 1009.8
20260508191009 25 36 3.2 6.4 0.00 0.00 0.00 62 1010.0
20260508190009 25 44 3.2 11.3 0.00 0.00 0.00 63 1010.2